DELTA 1 DEB, 7052

Orbit data source: Space-Track

DELTA 1 DEB, 7052 is space debris in SSO originally from a launch on Tue, 06 Nov 1973 UTC launched from the Air Force Western Test Range (AFWTR). Debris objects in space refer to the collection of defunct objects orbiting the Earth. Examples of debris include non-operational satellites, rocket bodies, and fragments generated from explosions, collisions, or faulty payload assembly.

Loading next visibility...
Identifier
7052, 1973-086AU
Orbit
SSO
Country
Flag of USUS
Related business
Manufacturer
Unknown
Mission
Spacecraft
Bus & Motor
Unknown
Mass
Unknown
Launch date (UTC)
1973-11-06 (52 years ago)
Launch vehicle
Unknown
Launch site
Air Force Western Test Range (AFWTR)
Object type
Payload
Rocket body
Debris
Shape & HBR
Unknown shape, 0.2 m
Radar Cross Section
Small (<0.1 m²)

Expand to show TLE details & history
Last TLE update: 16 hours ago

TLE from 16 hours ago
0 DELTA 1 DEB
1 07052U 73086AU  25292.00483008  .00000047  00000-0  72106-3 0  9991
2 07052 102.3946 294.6959 0023984 343.8477  38.5583 12.37487034345101
Epoch: 2025-10-19T00:06Z
TLE epoch observation values (Epoch: 2025-10-19T00:06:57.318Z)
Latitude
22.03886°
Longitude
-99.84965°
Altitude
1,504.822 km
Speed
7.121 km/s
True Right ascension
19h 18m 28s
True Declination
21° 55' 51"
Sunlit
Object was in daylight at epoch
Visualization orbit readout
Latitude
Unknown
Longitude
Unknown
Altitude
Unknown
Speed
Unknown
Apparent Right ascension
Unknown
Apparent Declination
Unknown
Sunlit
N/A
Visualization observer readout
Local Sidereal Time
10:51:21
Azimuth
Unknown
Elevation
Unknown
Doppler factor
Unknown
Orbital elements
Apogee altitude
1,533.806 km
Perigee altitude
1,495.945 km
Semi-major axis
7,893.013 km
Eccentricity
0.0024
Inclination
102.3946°
RAAN
294.6959°
Arg. of periapsis
343.8477°
True anomaly
38.73001°
Mean anomaly
38.5583°
Eccentric anomaly
38.64412°
Mean motion
3.09513 °/min
Orbital period
116.31 mins
BSTAR
0.00072106
Loading maneuver chart data...
Computing Atmospheric mass density...
Loading historical data...
Loading historical data...
Loading historical data...
Loading historical data...
Loading historical data...
Loading historical data...
Loading historical data...

Documentation

Showing up to 5 results
|